Location: Newark
(33.6439°N, 114.9881°W)
Time: 22:02:15
(UTC+00:00)

A-11 Canister half - All Passes

Search period start: 20 July 2019 00:00
Search period end: 30 July 2019 00:00
Orbit: 1514 x 1685 km, 47.2° (Epoch: 19 July)

Date Brightness Start Highest point End Pass type
(mag) Time Alt. Az. Time Alt. Az. Time Alt. Az.
20 Jul - 08:39:13 10° SSW 08:48:24 44° SE 08:57:47 10° ENE visible
20 Jul - 10:43:10 10° WSW 10:53:12 68° NNW 11:03:22 10° NE visible
20 Jul - 12:50:33 10° WNW 12:59:53 39° N 13:09:11 10° ENE daylight
20 Jul - 14:57:33 10° NW 15:07:13 45° NNE 15:16:38 10° E daylight
20 Jul - 17:02:58 10° NW 17:13:07 84° SW 17:22:53 10° SE daylight
20 Jul - 19:09:47 10° WNW 19:17:04 24° SW 19:24:11 10° S daylight
21 Jul - 08:16:31 10° SSW 08:25:31 41° SE 08:34:44 10° ENE visible
21 Jul - 10:20:10 10° WSW 10:30:12 71° NNW 10:40:25 10° NE visible
21 Jul - 12:27:28 10° WNW 12:36:48 39° N 12:46:09 10° ENE daylight
21 Jul - 14:34:33 10° NW 14:44:09 44° NNE 14:53:34 10° E daylight
21 Jul - 16:40:00 10° NW 16:50:10 88° SW 17:00:00 10° SE daylight
21 Jul - 18:46:35 10° WNW 18:54:13 26° SW 19:01:41 10° S daylight
22 Jul - 07:53:49 10° SSW 08:02:39 38° SE 08:11:39 10° ENE visible
22 Jul - 09:57:10 10° WSW 10:07:12 74° NNW 10:17:27 10° NE visible
22 Jul - 12:04:21 10° WNW 12:13:43 40° N 12:23:06 10° ENE visible
22 Jul - 14:11:32 10° NW 14:21:06 43° NNE 14:30:30 10° E daylight
22 Jul - 16:17:01 10° NW 16:27:13 88° NE 16:37:05 10° SE daylight
22 Jul - 18:23:23 10° WNW 18:31:22 28° SW 18:39:10 10° S daylight
23 Jul - 07:31:10 10° S 07:39:47 35° SE 07:48:34 10° ENE visible
23 Jul - 09:34:12 10° WSW 09:44:14 78° NW 09:54:29 10° NE visible
23 Jul - 11:41:15 10° W 11:50:38 41° NNW 12:00:04 10° NE visible
23 Jul - 13:48:30 10° NW 13:58:02 42° NNE 14:07:25 10° E daylight
23 Jul - 15:54:02 10° NW 16:04:16 84° NE 16:14:09 10° SE daylight
23 Jul - 18:00:14 10° WNW 18:08:31 31° SW 18:16:36 10° S daylight
24 Jul - 07:08:32 10° S 07:16:54 32° SE 07:25:26 10° ENE visible
24 Jul - 09:11:15 10° WSW 09:21:16 81° NW 09:31:30 10° NE visible
24 Jul - 11:18:08 10° W 11:27:34 41° NNW 11:37:03 10° NE visible
24 Jul - 13:25:29 10° NW 13:34:58 41° NNE 13:44:19 10° E daylight
24 Jul - 15:31:04 10° NW 15:41:18 80° NE 15:51:12 10° ESE daylight
24 Jul - 17:37:06 10° WNW 17:45:39 33° SW 17:54:00 10° S daylight
25 Jul - 06:45:57 10° S 06:54:02 30° SE 07:02:19 10° ENE visible
25 Jul - 08:48:18 10° SW 08:58:17 85° NW 09:08:32 10° NE visible
25 Jul - 10:55:03 10° W 11:04:30 42° NNW 11:14:02 10° NE visible
25 Jul - 13:02:27 10° WNW 13:11:53 40° N 13:21:14 10° E daylight
25 Jul - 15:08:06 10° NW 15:18:19 76° NE 15:28:15 10° ESE daylight
25 Jul - 17:14:00 10° WNW 17:22:47 36° SW 17:31:22 10° S daylight
26 Jul - 06:23:23 10° S 06:31:11 28° SE 06:39:09 10° ENE visible
26 Jul - 08:25:23 10° SW 08:35:20 89° NW 08:45:34 10° NE visible
26 Jul - 10:31:58 10° W 10:41:26 43° NNW 10:51:01 10° NE visible
26 Jul - 12:39:25 10° WNW 12:48:48 40° N 12:58:08 10° ENE daylight
26 Jul - 14:45:08 10° NW 14:55:20 73° NNE 15:05:18 10° ESE daylight
26 Jul - 16:50:54 10° WNW 16:59:55 39° SW 17:08:43 10° SSE daylight
27 Jul - 06:00:51 10° S 06:08:20 25° SE 06:15:57 10° ENE visible
27 Jul - 08:02:28 10° SW 08:12:22 87° SE 08:22:35 10° NE visible
27 Jul - 10:08:52 10° W 10:18:22 44° NNW 10:28:00 10° NE visible
27 Jul - 12:16:22 10° WNW 12:25:44 39° N 12:35:02 10° ENE visible
27 Jul - 14:22:09 10° NW 14:32:21 70° NNE 14:42:19 10° ESE daylight
27 Jul - 16:27:50 10° WNW 16:37:03 42° SW 16:46:01 10° SSE daylight
28 Jul - 05:38:22 10° S 05:45:29 23° SE 05:52:43 10° ENE visible
28 Jul - 07:39:34 10° SW 07:49:26 83° SE 07:59:37 10° NE visible
28 Jul - 09:45:47 10° W 09:55:19 46° NNW 10:05:01 10° NE visible
28 Jul - 11:53:19 10° WNW 12:02:38 39° N 12:11:57 10° ENE visible
28 Jul - 13:59:11 10° NW 14:09:21 67° NNE 14:19:19 10° ESE daylight
28 Jul - 16:04:46 10° WNW 16:14:09 45° SW 16:23:18 10° SSE daylight
29 Jul - 05:15:57 10° SSE 05:22:38 21° SE 05:29:27 10° E visible
29 Jul - 07:16:41 10° SW 07:26:30 79° SE 07:36:38 10° NE visible
29 Jul - 09:22:43 10° W 09:32:15 47° NNW 09:42:00 10° NE visible
29 Jul - 11:30:17 10° WNW 11:39:33 38° N 11:48:50 10° ENE visible
29 Jul - 13:36:14 10° NW 13:46:22 64° NNE 13:56:18 10° ESE daylight
29 Jul - 15:41:44 10° WNW 15:51:16 48° SW 16:00:35 10° SSE daylight
